sat.trackr.live / text

‹ back to catalog

STARLINK-32283

NORAD 62425 · 2024-249S

PAYLOAD ACTIVE UNKNOWN

§ Identity

Operator
Country
US
Launch date
2024-12-23
Launch site
AFETR
Launch vehicle
Mass (kg)
RCS (m²)

Purposes: comms

External: N2YO · Heavens-Above · Gunter

§ Orbital elements

Epoch: 2026-05-24T23:43:12.891360Z

Period
94.27 min
Inclination
42.9994°
Eccentricity
0.0001497
Mean motion
15.27582825 rev/d
Perigee alt
482.0 km
Apogee alt
484.1 km
Semi-major
6,861.2 km
B*
4.9866e-4
RAAN
239.6163°
Arg perigee
258.8154°
Mean anomaly
101.2530°
Rev number
7,952

§ Raw data

STARLINK-322831 62425U 24249S   26144.98834365  .00013486  00000+0  49866-3 0  99902 62425  42.9994 239.6163 0001497 258.8154 101.2530 15.27582825 79522

JSON: /api/v1/satellites/62425 · /tle

For live sub-satellite position, see the globe view (requires WebGL).

§ Visibility from observer

Set your observer location to see the next 7 days of passes ≥ 10°. The values pass through the URL so the page stays shareable.

No JS? Fill the form by hand. The geolocation button needs JavaScript.